EW9826 Weather Reports


time (UTC)temp
C
wind
direction
speed
KPH
gust
KPH
rain 1hr
cm
rain 24hr
cm
rain mn
cm
humidity
%
barometer
mb
20260503225007 13 215 1.6 4.8 0.00 0.51 0.00 93 1011.6
20260503222506 13 215 4.8 8.0 0.00 0.51 0.00 93 1011.6
20260503222007 13 215 3.2 4.8 0.00 0.51 0.00 93 1011.6
20260503220006 13 215 3.2 4.8 0.00 0.51 0.00 93 1011.3
20260503215506 13 215 3.2 8.0 0.00 0.51 0.51 93 1011.3
20260503215007 13 215 3.2 8.0 0.00 0.51 0.51 93 1011.3
20260503213006 13 215 3.2 8.0 0.00 0.61 0.51 93 1011.4
20260503212506 13 215 3.2 8.0 0.00 0.64 0.51 92 1011.4
20260503212007 13 215 3.2 4.8 0.00 0.66 0.51 92 1011.4
20260503211506 13 215 1.6 4.8 0.00 0.71 0.51 92 1011.3
20260503211007 13 215 1.6 12.9 0.00 0.74 0.51 92 1011.2
20260503210006 13 215 3.2 9.7 0.00 1.22 0.51 92 1011.3
20260503204506 14 215 3.2 8.0 0.00 1.45 0.51 91 1011.3
20260503204006 14 215 4.8 12.9 0.00 1.45 0.51 91 1011.4
20260503202506 14 236 4.8 12.9 0.00 1.45 0.51 90 1011.2
20260503202007 14 236 4.8 11.3 0.00 1.45 0.51 90 1011.2
20260503201506 14 236 4.8 9.7 0.00 1.45 0.51 90 1011.2
20260503201006 14 236 6.4 11.3 0.00 1.45 0.51 90 1011.1
20260503200006 14 236 4.8 8.0 0.00 1.45 0.51 90 1011.1
20260503195506 15 236 3.2 9.7 0.00 1.45 0.51 91 1011.0
20260503195006 15 236 1.6 4.8 0.00 1.45 0.51 90 1010.8
20260503194506 15 236 3.2 8.0 0.00 1.45 0.51 90 1010.8
20260503194006 15 236 3.2 8.0 0.00 1.45 0.51 89 1010.7
20260503193506 15 236 3.2 8.0 0.00 1.45 0.51 89 1010.6
20260503192006 15 236 3.2 8.0 0.00 1.45 0.51 88 1010.6
20260503191506 15 236 4.8 9.7 0.00 1.45 0.51 88 1010.5
20260503191006 15 236 3.2 11.3 0.00 1.45 0.51 88 1010.3
20260503190006 15 236 6.4 11.3 0.00 1.45 0.51 88 1010.3
20260503185505 15 236 4.8 8.0 0.00 1.45 0.51 89 1010.4
20260503184506 15 236 8.0 12.9 0.00 1.45 0.51 89 1010.3
20260503183506 15 236 3.2 4.8 0.00 1.45 0.51 89 1010.1
20260503182006 15 236 3.2 4.8 0.00 1.45 0.51 88 1010.1
20260503180006 15 236 3.2 11.3 0.00 1.45 0.51 86 1009.9
20260503175505 15 236 3.2 9.7 0.00 1.45 0.51 86 1010.0
20260503175006 15 236 3.2 14.5 0.00 1.45 0.51 86 1009.9
20260503174506 15 236 4.8 12.9 0.00 1.45 0.51 86 1009.9
20260503174005 16 236 4.8 12.9 0.00 1.45 0.51 87 1009.9
20260503173506 16 239 3.2 11.3 0.00 1.45 0.51 87 1009.7
20260503173006 16 259 1.6 8.0 0.00 1.45 0.51 87 1009.6
20260503172505 16 263 8.0 12.9 0.00 1.45 0.51 86 1009.6
20260503171505 16 243 4.8 11.3 0.00 1.45 0.51 85 1009.6
20260503171006 16 223 4.8 14.5 0.00 1.45 0.51 85 1009.7
20260503131005 15 244 3.2 9.7 0.00 1.45 0.51 89 1010.5
20260503081508 15 208 6.4 12.9 0.00 1.22 0.25 92 1010.2
20260503081009 15 213 6.4 11.3 0.00 1.22 0.25 92 1010.2
20260503071508 15 114 4.8 4.8 0.00 1.22 0.25 95 1010.1
20260503071008 15 114 4.8 11.3 0.00 1.22 0.25 95 1010.0
20260503052507 13 111 4.8 11.3 0.00 1.24 0.23 95 1010.1
20260503052008 13 111 3.2 11.3 0.00 1.24 0.23 95 1010.2
20260503051508 13 111 3.2 12.9 0.00 1.24 0.23 95 1010.1
20260503051007 13 111 3.2 12.9 0.00 1.24 0.23 95 1010.2
20260503050008 13 111 4.8 8.0 0.00 1.24 0.23 95 1010.3
20260503045508 13 111 3.2 8.0 0.00 1.24 0.23 95 1010.3
20260503045008 13 111 3.2 4.8 0.00 1.24 0.23 95 1010.3
20260503042007 13 111 3.2 4.8 0.00 1.24 0.23 95 1010.6
20260503041008 13 111 1.6 8.0 0.00 1.24 0.23 95 1010.6
20260503040008 13 111 3.2 4.8 0.03 1.24 0.23 95 1010.4
20260503034508 13 111 1.6 8.0 0.10 1.24 0.23 95 1010.5
20260503034007 13 111 1.6 3.2 0.10 1.24 0.23 95 1010.5
20260503033507 13 111 1.6 4.8 0.13 1.24 0.23 94 1010.5
20260503033007 13 111 1.6 4.8 0.13 1.24 0.23 94 1010.6
20260503030007 13 111 3.2 4.8 0.10 1.22 0.20 94 1010.9
20260503025507 13 111 3.2 8.0 0.05 1.17 0.15 94 1011.1
20260503025007 13 111 4.8 11.3 0.05 1.17 0.15 94 1011.3
20260503024507 13 111 3.2 8.0 0.05 1.14 0.13 94 1011.6
20260503024008 13 111 3.2 12.9 0.08 1.14 0.13 94 1011.6
20260503022507 13 109 4.8 8.0 0.05 1.12 0.10 94 1011.6
20260503022008 13 109 6.4 11.3 0.05 1.12 0.10 94 1011.7
20260503020007 13 106 1.6 4.8 0.05 1.12 0.10 93 1011.6
20260503015507 13 106 3.2 4.8 0.05 1.12 0.10 93 1011.5
20260503015008 13 106 4.8 8.0 0.05 1.09 0.08 93 1011.7
20260503004007 13 106 3.2 4.8 0.00 1.07 0.05 92 1011.7
20260503003507 13 106 3.2 4.8 0.03 1.07 0.05 92 1011.7
20260503003006 13 106 3.2 4.8 0.03 1.07 0.05 92 1011.7
20260503002507 13 106 3.2 11.3 0.05 1.07 0.05 92 1011.7
20260503002007 13 105 3.2 4.8 0.05 1.07 0.05 92 1011.7
20260503001507 13 105 4.8 11.3 0.05 1.07 0.05 92 1011.8
20260503001007 13 105 4.8 12.9 0.05 1.07 0.05 92 1011.7
20260502235507 13 103 4.8 11.3 0.05 1.07 0.05 92 1012.0
20260502234006 13 102 4.8 8.0 0.05 1.07 0.05 93 1012.2
20260502233507 13 102 3.2 11.3 0.03 1.04 0.03 92 1012.2
20260502233007 13 102 4.8 11.3 0.03 1.04 0.03 92 1012.3
20260502231507 13 101 3.2 9.7 0.00 1.02 0.00 92 1012.3
20260502231007 13 101 3.2 25.7 0.00 1.02 0.00 92 1012.2
20260502230006 13 102 4.8 12.9 0.00 1.02 0.00 92 1012.4